This demonstration page uses our WeatherBlox Daily Observations layout. Learn more.

Left ArrowRight Arrow

Hourly Observations for December 6, 2022

Temp ( °F °C ) Dew Point ( °F °C ) Humidity (%) Winds ( mph kmh ) Pressure ( in mb ) Visibility ( mi km ) Precip ( " mm )
12:52 am 00:52 Mostly Clear 24 -4.4 16 -8.9 71 71 N 7 11 29.99 1016 10 16 0.00 0.00
2:52 am 02:52 Mostly Cloudy 25 -3.9 17 -8.3 71 71 N 5 7 30.02 1017 10 16 0.00 0.00
3:52 am 03:52 Mostly Cloudy 25 -3.9 17 -8.3 71 71 Calm 30.01 1016 10 16 0.00 0.00
4:52 am 04:52 Mostly Cloudy 25 -3.9 17 -8.3 71 71 N 5 7 30.00 1016 10 16 0.00 0.00
5:52 am 05:52 Cloudy 25 -3.9 18 -7.8 74 74 Calm 30.00 1016 10 16 0.00 0.00
6:52 am 06:52 Cloudy 26 -3.3 18 -7.8 71 71 SE 3 6 30.01 1016 10 16 0.00 0.00
7:52 am 07:52 Cloudy 26 -3.3 19 -7.2 74 74 NNW 5 7 30.04 1017 10 16 0.00 0.00
8:52 am 08:52 Cloudy 27 -2.8 19 -7.2 72 72 N 7 11 30.06 1018 10 16 0.00 0.00
9:52 am 09:52 Mostly Cloudy 28 -2.2 19 -7.2 68 68 Calm 30.05 1018 10 16 0.00 0.00
10:52 am 10:52 Mostly Cloudy 32 0 20 -6.7 61 61 SSE 8 13 30.03 1017 10 16 0.00 0.00
11:52 am 11:52 Partly Cloudy 35 1.7 21 -6.1 56 56 VRB 5 7 30.02 1017 10 16 0.00 0.00
12:52 pm 12:52 Partly Cloudy 37 2.8 22 -5.6 54 54 Calm 29.99 1016 10 16 0.00 0.00
1:52 pm 13:52 Partly Cloudy 40 4.4 23 -5 50 50 VRB 5 7 29.98 1015 10 16 0.00 0.00
2:52 pm 14:52 Partly Cloudy 41 5 23 -5 48 48 S 6 9 29.98 1015 10 16 0.00 0.00
3:52 pm 15:52 Partly Cloudy 41 5 23 -5 48 48 S 5 7 29.98 1015 10 16 0.00 0.00
4:52 pm 16:52 Mostly Sunny 41 5 23 -5 48 48 S 5 7 30.01 1016 10 16 0.00 0.00
5:52 pm 17:52 Mostly Clear 35 1.7 22 -5.6 58 58 ESE 5 7 30.03 1017 10 16 0.00 0.00
6:52 pm 18:52 Mostly Clear 25 -3.9 18 -7.8 74 74 NW 7 11 30.06 1018 10 16 0.00 0.00
7:52 pm 19:52 Mostly Clear 26 -3.3 18 -7.8 71 71 Calm 30.08 1019 10 16 0.00 0.00
8:52 pm 20:52 Mostly Clear 25 -3.9 18 -7.8 74 74 Calm 30.10 1019 10 16 0.00 0.00
9:52 pm 21:52 Clear 21 -6.1 17 -8.3 84 84 NW 5 7 30.11 1020 10 16 0.00 0.00
10:52 pm 22:52 Clear 22 -5.6 18 -7.8 84 84 Calm 30.12 1020 10 16 0.00 0.00
11:52 pm 23:52 Mostly Clear 21 -6.1 18 -7.8 88 88 Calm 30.14 1021 10 16 0.00 0.00

Powered by AerisWeather